Regional Weather Roundup
Issued by NWS

Home | Current Version | Previous Version | Graphics & Text | Print | Product List | Glossary On
Versions: 1 2 3 4 5 6 7 8 9 10 11 12 13 14 15 16 17 18 19 20 21 22 23 24 25 26 27 28 29 30 31 32 33 34 35 36 37 38 39 40 41 42 43 44 45 46 47 48 49 50
000
ASUS43 KLSX 031707
RWRMO

WEATHER SUMMARY FOR MISSOURI
NATIONAL WEATHER SERVICE SPRINGFIELD MO
1200 PM CDT FRI JUL 03 2015

NOTE: "FAIR" INDICATES FEW OR NO CLOUDS BELOW 12,000 FEET WITH NO
       SIGNIFICANT WEATHER AND/OR OBSTRUCTIONS TO VISIBILITY.
       CURRENT SKY AND/OR WEATHER CONDITIONS ARE NOT AVAILABLE FOR
       CHILLICOTHE AND FARMINGTON.

MOZ001>031-035>038-043-044-053-054-031800-
...NORTHERN AND WESTERN MISSOURI...

CITY           SKY/WX    TMP DP  RH WIND       PRES   REMARKS
KANSAS CTY INT MOSUNNY   75  58  55 NE9       29.98R
KANSAS C DTWN  MOSUNNY   78  61  55 NE8       29.96R
LEE`S SUMMIT   MOSUNNY   75  62  64 NE8       29.98R
ST JOSEPH      SUNNY     75  58  55 NE8       29.99S
CHILLICOTHE      N/A     76  59  55 NE9       29.99R
KIRKSVILLE     PTSUNNY   74  58  57 N9        29.99S

$$
MOZ066>068-077>081-088>096-101>105-031800-
...SOUTHWEST MISSOURI...

CITY           SKY/WX    TMP DP  RH WIND       PRES   REMARKS
SPRINGFIELD    PTSUNNY   77  70  79 NW8       29.93S
JOPLIN         PTSUNNY   79  71  76 VRB5      29.93S

$$
MOZ032>034-039>042-045>050-055>058-069>072-031800-
...CENTRAL MISSOURI...

CITY           SKY/WX    TMP DP  RH WIND       PRES   REMARKS
COLUMBIA       SUNNY     76  59  55 NE6       29.96R
JEFFERSON CITY SUNNY     77  58  51 N6        29.94S
ROLLA          PTSUNNY   73  64  73 NE5       29.95R
SEDALIA        MOSUNNY   77  64  64 N7        29.97S
WHITEMAN AFB   MOSUNNY   74  65  73 VRB3      29.95S
WARRENSBURG    PTSUNNY   73  64  73 N6        29.96S
OSAGE BEACH    CLOUDY    73  66  78 E6        29.95S

$$
MOZ051-052-059>065-031800-
...EAST CENTRAL MISSOURI...

CITY           SKY/WX    TMP DP  RH WIND       PRES   REMARKS
ST LOUIS INTL  MOSUNNY   78  65  63 N9        29.93S
SPIRIT OF STL  PTSUNNY   77  66  68 NE8       29.93R
ST CHARLES     MOSUNNY   77  66  68 CALM      29.93S

$$
MOZ072>076-082>087-097>100-106>115-031800-
...SOUTH CENTRAL AND SOUTHEAST MISSOURI...

CITY           SKY/WX    TMP DP  RH WIND       PRES   REMARKS
CAPE GIRARDEAU PTSUNNY   79  70  74 W7        29.90F
FARMINGTON     CLOUDY    75  64  69 CALM      29.97S
POPLAR BLUFF   CLOUDY    78  69  73 CALM      29.91S
WEST PLAINS    CLOUDY    73  68  84 VRB6      29.96S

$$


USA.gov is the U.S. government's official web portal to all federal, state and local government web resources and services.